MPEC 2007-T97 : 2007 TR65
The following Minor Planet Electronic Circular may be linked-to from your own Web pages, but must not otherwise be redistributed electronically.A form allowing access to any MPEC is at the bottom of this page.


M.P.E.C. 2007-T97 Issued 2007 Oct. 12, 23:24 UT The Minor Planet Electronic Circulars contain information on unusual minor planets and routine data on comets. They are published on behalf of Commission 20 of the International Astronomical Union by the Minor Planet Center, Smithsonian Astrophysical Observatory, Cambridge, MA 02138, U.S.A. Prepared using the Tamkin Foundation Computer Network MPC@CFA.HARVARD.EDU URL http://www.cfa.harvard.edu/iau/mpc.html ISSN 1523-6714 2007 TR65 Observations: K07T65R* C2007 10 12.26331 01 22 18.37 -21 17 48.3 18.3 V ET097703 K07T65R C2007 10 12.27068 01 22 14.55 -21 17 16.8 18.5 V ET097703 K07T65R C2007 10 12.27806 01 22 10.70 -21 16 46.1 18.3 V ET097703 K07T65R C2007 10 12.28546 01 22 06.88 -21 16 14.0 18.2 V ET097703 K07T65R C2007 10 12.33427 01 21 41.76 -21 12 46.6 17.8 V ET097703 K07T65R C2007 10 12.33479 01 21 41.47 -21 12 44.7 17.9 V ET097703 K07T65R C2007 10 12.33532 01 21 41.22 -21 12 42.3 17.9 V ET097703 K07T65R C2007 10 12.33586 01 21 40.96 -21 12 40.3 17.7 V ET097703 K07T65R C2007 10 12.35833 01 21 29.36 -21 11 04.0 17.2 R ET097651 K07T65R C2007 10 12.35919 01 21 28.93 -21 11 00.3 17.4 R ET097651 K07T65R C2007 10 12.36006 01 21 28.48 -21 10 56.8 17.5 R ET097651 K07T65R C2007 10 12.58066 01 19 38.02 -20 54 48.8 17.9 R ET097474 K07T65R C2007 10 12.58137 01 19 37.64 -20 54 45.7 18.1 R ET097474 K07T65R C2007 10 12.58218 01 19 37.29 -20 54 42.4 18.1 R ET097474 K07T65R C2007 10 12.91212 01 16 55.11 -20 31 56.6 18.0 R ET097473 K07T65R bC2007 10 12.91255 01 16 55.00 -20 31 53.7 ET097143 K07T65R C2007 10 12.91648 01 16 52.94 -20 31 37.9 18.2 R ET097473 K07T65R C2007 10 12.92085 01 16 50.78 -20 31 19.2 18.1 R ET097473 K07T65R bC2007 10 12.92431 01 16 49.23 -20 31 04.8 ET097143 Observer details: 143 Gnosca. Observer S. Sposetti. 0.40-m f/4 reflector + CCD. 473 Remanzacco. Observers L. Donato, M. Gonano, V. Gonano, E. Guido, V. Santini, G. Sostero. 0.45-m f/4.4 Newtonian reflector + CCD. 474 Mount John Observatory, Lake Tekapo. Observer A. C. Gilmore. 1.0-m f/7.7 reflector + CCD. 651 Grasslands Observatory, Tucson. Observer J. E. McGaha. 0.62-m f/5.1 Newtonian reflector + CCD. 703 Catalina Sky Survey. Observer A. R. Gibbs. Measurers E. C. Beshore, A. Boattini, G. J. Garradd, A. R. Gibbs, A. D. Grauer, R. E. Hill, R. A. Kowalski, S. M. Larson, R. H. McNaught. 0.68-m Schmidt + CCD. Orbital elements: 2007 TR65 Earth MOID = 0.2988 AU Epoch 2007 Oct. 27.0 TT = JDT 2454400.5 MPC M 82.45478 (2000.0) P Q n 0.78635257 Peri. 216.04230 -0.56962698 +0.77306507 a 1.1624952 Node 23.73050 -0.49226500 -0.04896460 e 0.5640320 Incl. 43.90955 -0.65817952 -0.63243409 P 1.25 H 18.9 G 0.15 U 9 Residuals in seconds of arc 071012 703 0.6+ 0.0 071012 703 0.3+ 0.3- 071012 473 0.3- 0.4- 071012 703 0.3+ 0.2+ 071012 651 0.3- 0.0 071012 143 0.1- 0.6+ 071012 703 0.3- 0.4- 071012 651 0.2- 0.1+ 071012 473 0.4- 0.1- 071012 703 0.3- 0.3+ 071012 651 0.2- 0.1- 071012 473 0.2- 0.1+ 071012 703 0.0 0.2+ 071012 474 0.0 0.1- 071012 143 0.9+ 0.2- 071012 703 0.3- 0.1- 071012 474 0.3- 0.0 071012 703 0.0 0.0 071012 474 0.6+ 0.1- Ephemeris: 2007 TR65 a,e,i = 1.16, 0.56, 44 q = 0.5068 Date TT R. A. (2000) Decl. Delta r Elong. Phase V 2007 10 07 02 12.44 -27 19.8 0.314 1.261 141.7 29.4 18.2 2007 10 17 00 47.10 -15 50.8 0.372 1.340 153.4 19.5 18.4 2007 10 27 23 59.56 -06 32.4 0.482 1.412 143.8 24.6 19.2 2007 11 06 23 35.92 -00 18.6 0.622 1.477 131.2 30.3 20.0 2007 11 16 23 25.68 +03 58.3 0.778 1.536 120.3 33.8 20.7 2007 11 26 23 23.30 +07 10.6 0.943 1.589 110.9 35.5 21.2 2007 12 06 23 25.84 +09 47.4 1.111 1.636 102.4 36.0 21.7 2007 12 16 23 31.72 +12 04.9 1.280 1.678 94.7 35.8 22.0 Timothy B. Spahr (C) Copyright 2007 MPC M.P.E.C. 2007-T97


Enter an MPEC number in one of the following forms:
- 1997-B01 (the full form)
- J97B01 (the packed version of the full form)
- B01 (the abbreviated form)